Reflectivity
13 13 14 15 9 10 8 -20 -20 -20 -20 -20 -20 -20 -20 -20 -20 -20 -20 -20 -20 -20 -20 -20 -20 -20 -20 -20 -20 -20 -20 -17 -20 -20 -20 -20 -20 -20 -20 -20 -20 -20 -20 -20
12 14 15 12 -20 -20 -20 -20 -20 -20 -20 -20 -20 -20 -20 -20 -20 -20 -15 -18 -20 -20 -20 -20 -20 -20 -20 -20 -20 -11 -20 -13 -20 -20 -20 -20 -20 -20 -20 -15 -12 -20 -20 -20
12 11 9 -20 -3 -20 -20 -18 -11 -20 -20 -20 -20 -20 -20 -20 -20 -20 -20 -20 -20 3 -5 -20 -20 -20 -20 -20 -11 13 -13 -20 -20 -20 -20 -20 -20 -20 -20 3 4 -20 -20 -20
21 16 15 18 21 15 -14 2 15 -19 -20 -20 -20 -20 -20 -20 -19 -4 -17 -20 -15 12 14 -7 -20 5 5 8 -15 12 -2 -19 -20 -20 -20 -20 -20 -20 -20 -19 -17 -9 -20 -20
25 32 32 35 35 34 22 2 2 2 16 -20 -20 -20 -20 -20 -5 -20 -20 -20 4 17 14 11 23 21 14 -12 -10 10 4 -20 -20 -20 -20 -20 -20 -20 -20 -20 -20 -20 -20 -20
16 25 26 31 38 38 29 1 17 15 14 -17 -20 -20 -20 -20 -19 -20 -20 -20 -15 1 -11 -9 -19 10 21 14 -15 3 12 -1 9 -2 -20 -20 -20 -20 -20 -20 -20 -20 -20 -20
13 10 21 24 29 36 36 10 16 29 22 0 -19 -20 -20 -20 -3 -19 -20 -7 14 -6 -10 -19 -19 -9 -8 -14 -5 -16 5 10 16 4 -6 -0 -20 -20 -20 -20 -20 -20 -20 -20
-6 7 6 15 23 34 30 7 24 28 19 14 3 -11 -20 -17 -19 -12 -16 -20 -8 6 19 10 8 -19 -20 -19 -20 -16 -19 6 16 12 -17 -20 -20 -20 -20 -20 -20 -20 -20 -20
-18 -19 -20 -19 -12 10 23 20 15 31 28 25 -7 -2 -19 -3 -13 -20 -20 -15 -2 -4 -8 13 15 -19 -20 -20 -20 -20 2 10 13 13 5 -20 -20 -20 -20 -20 -20 -20 -20 -20
12 8 10 -1 3 12 15 3 23 31 31 7 -3 17 0 4 -12 -12 -19 -7 11 -11 2 15 1 -6 -20 -20 -20 -20 -9 5 13 -10 12 11 -20 -20 -20 -20 -16 -3 -19 -20
9 10 13 13 8 9 18 3 12 15 44 10 -8 18 13 25 25 25 6 17 16 15 16 11 -7 -20 -19 -19 -20 -20 -20 -20 -16 -11 14 11 -20 -20 -20 -20 -20 -20 5 -18
-1 6 15 16 15 14 14 11 -17 19 22 28 10 -15 -17 -17 1 8 35 30 -4 11 15 19 -20 11 11 -7 -20 -20 -20 -20 -12 -19 -20 -20 -20 -20 -4 -5 -20 -4 11 -18
19 20 14 10 -1 17 22 8 6 19 17 -20 -20 -18 -4 2 4 15 28 30 7 16 20 19 8 22 24 10 2 -1 -20 -20 6 -9 3 -14 -20 -20 -20 -20 -17 13 -0 -20
10 6 16 4 -20 8 20 22 8 24 18 14 -19 -20 -20 -20 -20 -20 21 26 20 16 33 19 11 14 1 8 -1 9 -6 -20 -12 18 -17 -20 -20 -20 -20 2 18 13 -18 -20
18 15 19 -20 17 12 20 20 8 16 21 18 7 -10 -13 -20 -20 -20 -20 16 20 33 30 29 26 7 1 10 14 21 -4 -20 -20 -20 -20 -3 -2 -15 -9 12 14 -9 -20 -20
17 16 15 -19 -14 -9 32 26 -5 -9 4 22 24 8 -7 -19 -20 -20 -20 -20 -19 12 21 22 25 20 8 22 19 -20 -20 -20 -20 -20 -6 4 4 12 14 6 -20 -20 -20 -20
12 18 10 -8 -14 -20 28 30 20 13 -5 16 17 4 -20 -20 -20 -20 -20 -17 -16 -18 -16 -7 -13 -20 -20 -20 -20 -20 -20 -20 -16 9 17 15 8 6 4 -19 -20 -15 -20 -20
18 3 14 16 14 13 -12 -3 -8 15 32 32 19 12 0 7 -18 -20 -13 -11 -4 14 11 14 14 13 14 8 -6 -20 -9 6 6 17 15 -3 -6 -14 -20 -20 -20 -20 -20 -20
-13 24 23 11 -15 -15 -20 -20 -20 -3 18 21 18 9 -7 -20 -20 -20 -20 -20 -20 -20 -20 -20 -18 -19 -16 -20 -20 -20 -20 -5 8 10 4 -20 -20 -20 -20 -20 -20 -20 -20 -20
20 -5 16 -20 -13 -14 -20 -20 -20 -13 2 10 -15 -13 -20 -20 -20 -20 -20 -20 -20 -20 -20 -20 -20 -20 -20 -20 -20 -20 -20 -4 8 7 -9 -20 -20 -20 -20 -20 -20 -20 -20 -20
-16 13 20 -12 7 -19 -13 19 12 -9 -11 3 -15 -19 -15 -17 -20 -13 -8 -1 -6 6 -6 -20 -20 -20 -20 -20 -20 -18 2 9 2 -20 -20 -20 -20 -20 -20 -20 -20 -20 -20 -20
-18 -20 -20 -20 -20 -20 17 12 10 -18 -13 -20 -20 -16 8 15 11 10 10 11 -3 -20 -20 -20 -20 -20 -20 -19 -4 -1 -5 -16 -20 -20 -20 -20 -20 -20 -20 -20 -20 -20 -20 -20
-5 -1 -11 -20 -20 -4 3 -19 -6 -20 -15 12 19 12 12 5 8 9 -5 -16 -20 -20 -20 -20 -20 -20 -8 -18 -20 -20 -20 -20 -20 -20 -20 -20 -20 -20 -20 -20 -20 -20 -20 -20
-20 -19 -20 -19 -7 -20 -20 3 10 -17 -20 -20 -12 -20 -20 -20 -20 -8 -20 -20 -20 -20 -20 -20 -20 -20 -20 -20 -20 -20 -20 -20 -20 -20 -20 -20 -20 -20 -20 -20 -20 -20 -20 -20
-20 -16 -5 -8 -14 -1 -1 11 5 -20 -20 -20 -20 -20 -20 -20 -20 -20 -19 -20 -20 -20 -20 -20 -20 -20 -20 -20 -20 -20 -20 -20 -20 -20 -20 -20 -20 -20 -20 -20 -20 -20 -20 -20
-3 -20 -18 -20 -20 -20 -20 -20 -20 -20 -20 -20 -20 -20 -20 -20 -20 -20 -20 -20 -20 -20 -20 -20 -20 -20 -20 -20 -20 -20 -20 -20 -20 -20 -20 -20 -20 -20 -20 -20 -20 -20 -20 -20
-20 -20 -20 -20 -20 -20 -20 -20 -20 -20 -20 -20 -20 -20 -20 -20 -20 -20 -20 -20 -20 -20 -20 -20 -20 -20 -20 -20 -20 -20 -20 -20 -20 -20 -20 -20 -20 -20 -20 -20 -20 -20 -20 -20
Wind_Speed
12 12 12 10 8 5 4 2 3 2 2 5 4 5 6 1 5 3 5 3 8 10 10 9 8 11 9 12 15 12 9 3 7 8 3 3 3 7 12 7 8 6 4 16
13 13 14 13 14 14 5 3 3 2 3 7 7 4 4 4 7 7 8 9 8 4 8 5 12 7 1 15 14 14 12 7 4 5 2 4 8 11 10 1 1 12 10 12
17 16 16 18 19 18 4 4 4 3 4 2 3 4 6 6 6 4 5 3 5 4 7 11 4 9 5 12 12 7 13 7 11 17 4 7 9 13 20 16 9 11 23 28
21 21 21 21 21 23 6 4 5 6 8 11 15 8 3 7 8 6 7 6 13 9 7 6 9 8 3 8 12 10 10 11 13 21 17 8 12 10 20 26 26 17 33 26
21 21 22 22 23 25 4 6 5 3 3 4 15 14 11 18 10 11 9 13 11 15 14 14 9 9 9 9 16 14 7 8 7 13 15 20 25 23 21 26 25 32 35 36
18 20 21 22 23 20 3 3 2 3 7 7 8 11 14 12 10 11 18 17 12 15 27 21 18 12 8 8 14 17 9 7 6 11 4 1 17 28 30 22 22 31 27 37
10 12 15 18 22 29 6 5 5 5 7 12 14 13 17 20 20 22 12 11 10 5 5 4 3 10 13 13 16 16 10 11 5 6 5 11 7 6 13 26 26 24 20 23
14 11 9 10 14 22 8 5 5 6 7 10 18 21 21 18 17 23 21 20 19 11 6 3 6 4 4 12 23 19 16 11 7 7 10 12 23 9 11 13 19 24 26 28
15 13 13 14 13 13 10 10 7 4 4 15 17 15 20 16 14 15 18 16 7 8 5 5 8 10 6 6 4 2 17 13 9 7 7 12 14 4 4 7 13 13 22 25
17 17 18 16 16 16 9 5 12 8 5 13 7 9 8 6 9 7 1 6 5 12 8 8 9 10 6 9 9 8 7 10 21 19 14 10 7 10 5 8 8 1 8 10
18 18 18 18 19 17 10 8 7 8 4 10 11 18 17 3 5 8 6 3 3 4 8 8 8 9 11 8 12 12 14 14 9 11 9 16 11 9 14 4 3 3 4 5
21 19 18 18 19 19 15 11 7 8 8 7 6 15 22 21 22 7 7 5 5 7 7 7 3 7 5 9 12 3 9 15 8 15 12 3 19 5 7 3 6 5 4 6
21 22 22 20 21 22 19 10 6 5 7 12 14 18 10 8 16 15 12 5 6 6 5 5 6 8 6 8 10 9 8 5 8 6 14 12 11 8 5 6 4 5 4 8
22 20 18 20 22 24 21 11 8 8 4 7 15 2 5 1 4 7 5 10 2 3 4 7 7 7 8 7 8 11 4 12 10 11 15 0 9 15 9 7 7 8 7 8
19 19 18 19 21 24 17 9 8 10 10 4 4 1 4 1 3 6 4 8 10 5 5 6 7 4 3 1 1 5 8 8 8 13 5 1 4 1 10 10 9 10 11 9
19 19 19 16 16 14 6 4 9 12 10 7 8 3 3 3 0 2 1 0 2 3 3 4 2 3 2 5 7 5 4 5 4 0 5 8 7 8 6 7 9 8 9 9
19 18 16 16 13 3 4 3 3 3 7 5 5 5 3 2 3 2 1 2 0 2 4 4 6 3 4 4 9 4 6 6 7 6 6 5 4 5 6 10 11 12 12 10
18 16 15 13 13 10 5 7 17 11 4 4 3 2 2 1 3 3 3 1 1 2 1 0 1 2 1 7 2 9 9 8 7 5 5 6 12 10 9 9 9 10 9 8
14 14 10 4 1 3 3 5 6 2 3 4 2 5 7 1 2 2 2 1 3 2 1 0 2 2 8 1 5 9 9 4 10 9 8 9 10 10 7 5 5 7 5 4
6 4 2 3 3 4 4 2 3 4 2 5 1 3 2 1 2 2 2 1 1 3 1 1 3 5 3 3 4 5 7 10 11 9 6 7 7 7 4 3 4 4 4 3
2 2 3 0 2 1 2 2 2 2 3 4 3 3 1 2 2 3 1 2 1 3 3 3 2 5 2 2 6 7 8 7 5 4 6 4 8 9 7 5 4 4 3 2
3 4 3 1 1 1 4 1 1 5 3 3 3 3 2 1 2 2 1 1 2 3 1 2 4 1 3 5 5 7 6 6 6 5 8 8 9 6 6 5 4 3 3 2
2 2 3 3 2 2 5 4 2 2 5 4 2 1 2 0 1 2 1 4 1 0 2 3 2 3 6 7 6 5 3 5 7 6 5 7 7 4 3 4 2 3 2 1
4 2 4 5 4 5 4 4 3 3 3 4 3 1 2 2 2 1 2 2 2 2 3 3 2 3 7 6 6 7 6 5 6 6 5 5 5 4 3 2 3 3 2 2
6 6 6 6 1 1 2 2 3 2 4 4 2 1 1 2 2 2 3 2 3 3 2 2 2 1 6 6 5 5 6 5 4 4 4 5 4 3 3 3 3 4 3 4
5 8 3 4 1 5 4 4 3 3 5 2 2 1 1 2 1 2 2 2 2 2 2 2 0 2 3 4 5 5 5 5 5 5 4 4 5 4 2 2 4 5 5 4
6 4 1 2 2 3 3 3 4 5 4 2 2 2 3 1 2 1 1 3 3 3 2 1 0 2 5 4 4 4 6 7 5 4 4 3 3 2 2 4 3 4 5 5
Wind_Direction
240 234 225 219 205 163 148 166 215 77 241 182 204 213 207 204 191 178 218 236 221 196 185 195 230 224 226 158 152 172 191 185 217 213 77 298 263 212 186 216 193 241 321 267
240 234 225 212 196 175 144 166 115 96 281 212 211 228 253 248 182 198 188 215 217 169 193 220 210 209 126 165 171 167 171 196 213 204 183 190 223 199 208 57 50 223 248 256
237 231 224 210 200 183 132 140 170 150 220 268 228 198 233 231 209 207 187 167 129 151 215 234 233 220 188 192 206 182 166 190 226 250 347 126 203 202 204 207 225 253 234 268
234 226 221 214 203 181 135 164 217 182 189 230 219 192 240 214 213 211 196 208 215 181 214 219 234 210 176 199 218 192 185 240 225 257 270 234 243 213 197 210 221 228 265 252
240 231 222 217 205 179 169 162 182 176 246 190 198 207 226 234 230 166 213 235 219 197 224 209 242 194 200 208 192 193 198 243 215 265 242 242 257 246 216 212 223 237 251 266
251 242 230 220 205 169 168 182 154 169 188 190 192 202 218 221 221 231 233 216 231 205 228 232 239 228 222 211 175 190 187 216 188 259 100 235 265 230 224 205 228 218 241 242
294 270 253 234 216 185 169 177 138 178 230 204 208 223 216 224 218 235 230 211 210 205 100 65 330 245 242 219 208 181 185 187 195 268 148 244 289 6 220 218 238 224 244 254
291 292 290 275 252 210 215 162 170 173 242 221 227 232 236 240 240 240 240 232 224 129 132 217 246 203 247 230 229 206 201 180 209 226 214 304 295 178 176 181 258 223 233 246
281 280 286 280 270 261 239 221 208 193 222 234 233 224 222 233 234 243 240 239 213 135 179 186 225 230 197 212 219 359 209 216 210 191 229 230 271 162 193 157 262 200 207 230
276 272 269 265 272 260 251 254 203 219 211 252 200 207 213 189 207 239 187 177 177 179 193 215 225 233 191 216 208 170 180 206 222 232 241 247 277 147 162 219 269 62 206 225
279 275 269 263 264 262 253 263 225 220 240 256 232 245 228 181 195 212 145 142 171 176 222 205 211 228 211 219 219 180 177 176 202 216 238 251 137 115 205 212 139 166 200 198
274 276 275 272 261 255 254 261 249 252 256 277 253 241 243 230 223 206 189 253 164 201 188 217 201 224 198 228 233 144 214 208 191 200 209 138 191 207 175 169 143 181 199 192
277 278 264 263 269 260 244 248 242 249 255 269 259 251 246 237 243 239 246 211 187 212 230 210 203 221 171 199 226 237 240 172 231 193 239 221 201 206 168 185 146 149 181 169
285 275 267 270 267 270 260 250 237 228 252 238 253 148 224 53 233 213 227 244 241 188 195 228 225 219 186 198 248 217 232 147 212 253 267 336 230 219 191 148 129 129 132 152
278 281 284 287 284 280 266 255 235 231 229 272 284 333 200 109 255 237 227 227 231 219 229 231 249 257 217 111 129 232 184 211 225 254 22 313 93 292 146 151 163 153 144 132
272 268 271 280 287 292 276 232 229 219 213 247 246 22 350 10 6 263 120 92 273 258 226 216 134 24 230 214 246 270 83 71 19 352 89 81 91 58 77 125 132 130 127 131
274 271 271 270 272 271 242 277 300 287 179 223 242 239 36 2 101 62 152 20 276 248 257 255 274 176 217 222 248 113 119 109 89 70 119 111 43 93 80 107 99 97 90 87
270 262 265 274 287 288 263 225 248 245 261 242 255 168 195 255 173 165 358 133 163 33 11 315 218 134 241 240 177 123 125 119 96 79 54 83 113 98 89 100 115 113 102 100
270 266 292 317 207 220 287 350 359 163 191 276 259 241 256 116 87 80 97 344 216 29 212 211 275 158 224 319 142 164 165 173 142 105 104 112 111 109 108 112 101 106 104 104
292 95 172 249 178 285 311 255 225 193 77 17 326 331 186 265 160 118 150 331 226 237 111 311 235 260 69 30 1 127 127 126 134 124 127 140 117 136 136 98 76 94 119 126
113 169 224 154 296 251 227 243 238 71 101 15 12 5 324 9 183 163 264 165 162 244 94 245 220 262 107 90 73 79 109 100 70 67 76 72 130 141 139 134 130 117 123 147
139 129 83 69 44 286 268 48 59 39 52 2 358 357 348 357 320 108 141 202 172 251 122 258 253 65 112 142 110 93 96 112 96 77 94 94 107 117 117 107 128 171 171 181
71 60 67 358 3 255 1 346 59 59 360 10 343 336 337 349 43 81 156 204 189 234 227 253 302 107 157 145 135 121 84 108 113 100 89 94 97 83 100 143 164 158 201 246
66 43 55 20 34 45 12 337 335 345 311 341 346 349 352 335 77 349 161 64 249 246 254 254 46 176 154 150 147 143 156 142 129 120 118 122 140 140 149 177 164 183 229 201
54 23 46 44 356 303 309 290 283 342 299 310 298 244 306 29 93 40 129 173 240 235 282 340 9 133 152 155 162 149 150 158 151 152 168 165 155 170 176 192 204 220 244 250
57 40 41 350 27 357 359 356 332 313 317 267 234 295 309 62 30 220 242 271 288 18 336 1 54 177 174 172 175 170 154 168 176 175 175 165 178 187 196 197 228 232 236 251
45 37 3 2 278 289 312 315 324 312 300 353 299 350 17 265 255 279 289 304 340 335 342 354 301 206 194 180 163 166 177 184 184 175 185 179 145 148 213 239 202 225 229 241